| time (UTC) | temp F | wind direction | speed knots | gust knots | rain 1hr in | rain 24hr in | rain mn in | humidity % | barometer mb |
| 20260506235640 | 36 | 266 | 0.9 | 2.6 | 0.04 | 3.74 | 0.01 | 92 | 1011.7 |
| 20260506235126 | 36 | 266 | 0.9 | 2.6 | 0.04 | 3.74 | 0.01 | 92 | 1011.6 |
| 20260506234630 | 36 | 266 | 0.9 | 2.6 | 0.04 | 3.74 | 0.01 | 92 | 1011.6 |
| 20260506234135 | 36 | 266 | 0.9 | 2.6 | 0.04 | 3.74 | 0.01 | 92 | 1011.7 |
| 20260506233640 | 36 | 266 | 1.7 | 2.6 | 0.04 | 3.74 | 0.01 | 92 | 1011.7 |
| 20260506233125 | 37 | 292 | 0.9 | 2.6 | 0.04 | 3.74 | 0.01 | 91 | 1011.6 |
| 20260506232633 | 37 | 300 | 1.7 | 4.3 | 0.04 | 3.74 | 0.01 | 91 | 1011.6 |
| 20260506232138 | 37 | 241 | 1.7 | 6.1 | 0.00 | 3.70 | 0.00 | 90 | 1011.6 |
| 20260506231642 | 37 | 264 | 2.6 | 5.2 | 0.00 | 3.70 | 0.00 | 90 | 1011.6 |
| 20260506231125 | 37 | 269 | 1.7 | 4.3 | 0.00 | 3.70 | 0.00 | 90 | 1011.6 |
| 20260506230629 | 37 | 347 | 0.9 | 4.3 | 0.00 | 4.02 | 0.00 | 89 | 1011.5 |
| 20260506230134 | 37 | 224 | 1.7 | 4.3 | 0.00 | 4.02 | 0.00 | 89 | 1011.4 |
| 20260506225638 | 37 | 224 | 3.5 | 4.3 | 0.04 | 4.02 | 0.00 | 88 | 1011.4 |
| 20260506225125 | 37 | 191 | 2.6 | 5.2 | 0.04 | 4.02 | 0.00 | 88 | 1011.4 |
| 20260506224629 | 37 | 298 | 1.7 | 5.2 | 0.04 | 4.02 | 0.00 | 89 | 1011.6 |
| 20260506224133 | 37 | 283 | 3.5 | 5.2 | 0.04 | 4.02 | 0.00 | 89 | 1011.6 |
| 20260506223623 | 37 | 15 | 3.5 | 6.1 | 0.04 | 4.02 | 0.00 | 89 | 1011.5 |
| 20260506223128 | 37 | 221 | 1.7 | 3.5 | 0.04 | 4.02 | 0.00 | 89 | 1011.6 |
| 20260506222632 | 37 | 69 | 1.7 | 4.3 | 0.08 | 4.02 | 0.00 | 89 | 1011.6 |
| 20260506222136 | 37 | 328 | 1.7 | 4.3 | 0.08 | 4.02 | 0.00 | 90 | 1011.7 |
| 20260506221641 | 36 | 338 | 2.6 | 5.2 | 0.08 | 4.02 | 0.00 | 90 | 1011.7 |
| 20260506221126 | 36 | 355 | 3.5 | 5.2 | 0.08 | 4.02 | 0.00 | 91 | 1011.7 |
| 20260506220630 | 36 | 10 | 1.7 | 4.3 | 0.08 | 4.29 | 1.02 | 91 | 1011.7 |
| 20260506220134 | 36 | 26 | 3.5 | 6.1 | 0.12 | 4.29 | 1.02 | 92 | 1011.7 |
| 20260506215637 | 36 | 59 | 2.6 | 6.1 | 0.08 | 4.25 | 1.01 | 93 | 1011.7 |
| 20260506215142 | 36 | 46 | 1.7 | 6.1 | 0.08 | 4.25 | 1.01 | 94 | 1011.6 |
| 20260506214625 | 36 | 110 | 2.6 | 6.1 | 0.12 | 4.25 | 1.01 | 93 | 1011.7 |
| 20260506214134 | 36 | 90 | 3.5 | 6.1 | 0.12 | 4.25 | 1.01 | 93 | 1011.6 |
| 20260506213639 | 36 | 155 | 1.7 | 5.2 | 0.12 | 4.25 | 1.01 | 92 | 1011.7 |
| 20260506213125 | 36 | 230 | 1.7 | 6.1 | 0.12 | 4.25 | 1.01 | 92 | 1011.7 |
| 20260506212629 | 36 | 256 | 0.9 | 9.6 | 0.08 | 4.21 | 1.00 | 92 | 1011.8 |
| 20260506212133 | 36 | 257 | 4.3 | 11.3 | 0.12 | 4.21 | 1.00 | 92 | 1011.7 |
| 20260506211637 | 36 | 245 | 8.7 | 11.3 | 0.12 | 4.21 | 1.00 | 91 | 1011.7 |
| 20260506211142 | 37 | 279 | 3.5 | 9.6 | 0.12 | 4.21 | 1.00 | 91 | 1011.7 |
| 20260506210627 | 37 | 260 | 7.8 | 10.4 | 0.16 | 4.29 | 1.00 | 91 | 1011.6 |
| 20260506210131 | 37 | 259 | 7.0 | 10.4 | 0.12 | 4.25 | 0.99 | 92 | 1011.6 |
| 20260506205634 | 37 | 309 | 5.2 | 10.4 | 0.12 | 4.25 | 0.99 | 92 | 1011.6 |
| 20260506205123 | 37 | 298 | 7.0 | 10.4 | 0.16 | 4.25 | 0.99 | 94 | 1011.7 |
| 20260506204627 | 36 | 277 | 2.6 | 6.1 | 0.12 | 4.21 | 0.98 | 96 | 1011.7 |
| 20260506204132 | 36 | 310 | 3.5 | 7.8 | 0.16 | 4.21 | 0.98 | 96 | 1011.7 |
| 20260506203636 | 35 | 343 | 5.2 | 10.4 | 0.16 | 4.21 | 0.98 | 96 | 1011.6 |
| 20260506203141 | 35 | 9 | 7.0 | 11.3 | 0.20 | 4.21 | 0.98 | 96 | 1011.7 |
| 20260506202626 | 35 | 330 | 7.0 | 13.0 | 0.16 | 4.17 | 0.97 | 95 | 1011.7 |
| 20260506202130 | 35 | 333 | 10.4 | 13.0 | 0.16 | 4.17 | 0.97 | 94 | 1011.6 |
| 20260506201635 | 36 | 327 | 3.5 | 7.0 | 0.20 | 4.17 | 0.97 | 95 | 1011.6 |
| 20260506201139 | 36 | 260 | 5.2 | 8.7 | 0.20 | 4.17 | 0.97 | 95 | 1011.6 |
| 20260506200625 | 36 | 229 | 6.1 | 8.7 | 0.16 | 4.21 | 0.96 | 95 | 1011.5 |
| 20260506200130 | 36 | 246 | 2.6 | 4.3 | 0.16 | 4.21 | 0.96 | 95 | 1011.5 |
| 20260506195638 | 36 | 167 | 1.7 | 6.1 | 0.20 | 4.21 | 0.96 | 95 | 1011.4 |
| 20260506195123 | 37 | 155 | 3.5 | 7.8 | 0.16 | 4.17 | 0.95 | 94 | 1011.3 |
| 20260506194628 | 36 | 115 | 4.3 | 7.8 | 0.20 | 4.17 | 0.95 | 93 | 1011.2 |
| 20260506194131 | 36 | 110 | 5.2 | 10.4 | 0.16 | 4.13 | 0.94 | 92 | 1011.2 |
| 20260506193634 | 36 | 117 | 5.2 | 10.4 | 0.16 | 4.13 | 0.94 | 91 | 1011.2 |
| 20260506193138 | 37 | 122 | 2.6 | 8.7 | 0.16 | 4.09 | 0.93 | 89 | 1011.1 |
| 20260506192641 | 37 | 69 | 2.6 | 4.3 | 0.16 | 4.09 | 0.93 | 89 | 1010.9 |
| 20260506192124 | 38 | 163 | 1.7 | 5.2 | 0.16 | 4.09 | 0.93 | 88 | 1010.9 |
| 20260506191629 | 38 | 173 | 1.7 | 5.2 | 0.12 | 4.06 | 0.92 | 88 | 1010.8 |
| 20260506191133 | 38 | 281 | 1.7 | 5.2 | 0.16 | 4.06 | 0.92 | 88 | 1010.7 |
| 20260506190638 | 38 | 339 | 2.6 | 5.2 | 0.16 | 4.17 | 0.92 | 88 | 1010.7 |
| 20260506190127 | 38 | 360 | 2.6 | 7.8 | 0.20 | 4.17 | 0.92 | 88 | 1010.7 |
| 20260506185632 | 37 | 297 | 4.3 | 7.8 | 0.20 | 4.13 | 0.91 | 89 | 1010.6 |
| 20260506185136 | 37 | 360 | 3.5 | 5.2 | 0.24 | 4.13 | 0.91 | 90 | 1010.4 |
| 20260506184640 | 37 | 67 | 3.5 | 5.2 | 0.28 | 4.09 | 0.90 | 89 | 1010.6 |
| 20260506184125 | 37 | 15 | 0.9 | 7.8 | 0.31 | 4.09 | 0.90 | 90 | 1010.4 |
| 20260506183629 | 37 | 337 | 5.2 | 7.8 | 0.35 | 4.09 | 0.90 | 90 | 1010.4 |
| 20260506183134 | 36 | 333 | 1.7 | 3.5 | 0.31 | 4.06 | 0.89 | 90 | 1010.4 |
| 20260506182639 | 36 | 250 | 0.9 | 1.7 | 0.35 | 4.06 | 0.89 | 91 | 1010.5 |
| 20260506182124 | 36 | 250 | 0.9 | 4.3 | 0.35 | 4.06 | 0.89 | 91 | 1010.5 |
| 20260506181628 | 36 | 250 | 1.7 | 4.3 | 0.39 | 4.06 | 0.89 | 91 | 1010.4 |
| 20260506181137 | 36 | 304 | 2.6 | 7.8 | 0.35 | 4.02 | 0.88 | 90 | 1010.3 |
| 20260506180622 | 35 | 346 | 1.7 | 7.8 | 0.39 | 4.06 | 0.88 | 93 | 1010.2 |
| 20260506180128 | 35 | 9 | 3.5 | 7.8 | 0.35 | 4.02 | 0.87 | 95 | 1010.2 |
| 20260506175632 | 35 | 327 | 1.7 | 6.1 | 0.31 | 3.98 | 0.86 | 96 | 1010.5 |
| 20260506175137 | 35 | 36 | 4.3 | 6.1 | 0.28 | 3.90 | 0.84 | 95 | 1010.2 |
| 20260506174642 | 35 | 59 | 1.7 | 7.0 | 0.24 | 3.86 | 0.83 | 95 | 1010.3 |
| 20260506174128 | 34 | 65 | 4.3 | 7.8 | 0.20 | 3.82 | 0.82 | 95 | 1010.2 |
| 20260506173633 | 34 | 62 | 5.2 | 7.8 | 0.20 | 3.78 | 0.81 | 95 | 1010.1 |
| 20260506173136 | 35 | 66 | 4.3 | 11.3 | 0.20 | 3.78 | 0.81 | 95 | 1010.2 |
| 20260506172640 | 35 | 67 | 7.0 | 11.3 | 0.16 | 3.74 | 0.80 | 95 | 1010.1 |
| 20260506172128 | 35 | 49 | 2.6 | 7.0 | 0.20 | 3.74 | 0.80 | 95 | 1010.1 |
| 20260506171631 | 35 | 51 | 1.7 | 8.7 | 0.20 | 3.70 | 0.79 | 96 | 1010.1 |
| 20260506171135 | 35 | 13 | 7.0 | 12.2 | 0.20 | 3.66 | 0.78 | 95 | 1009.9 |
| 20260506170640 | 34 | 10 | 6.1 | 13.9 | 0.20 | 3.70 | 0.78 | 95 | 1009.9 |
| 20260506170124 | 35 | 355 | 9.6 | 13.9 | 0.20 | 3.70 | 0.78 | 95 | 1009.9 |
| 20260506165628 | 35 | 336 | 7.8 | 12.2 | 0.24 | 3.70 | 0.78 | 93 | 1009.9 |
| 20260506165132 | 37 | 19 | 5.2 | 9.6 | 0.20 | 3.66 | 0.77 | 92 | 1009.6 |
| 20260506164636 | 37 | 33 | 3.5 | 10.4 | 0.20 | 3.66 | 0.77 | 93 | 1009.1 |
| 20260506164141 | 37 | 42 | 5.2 | 10.4 | 0.24 | 3.66 | 0.77 | 95 | 1009.1 |
| 20260506163626 | 37 | 97 | 4.3 | 8.7 | 0.20 | 3.62 | 0.76 | 95 | 1009.2 |
| 20260506163132 | 38 | 277 | 5.2 | 12.2 | 0.24 | 3.62 | 0.76 | 96 | 1009.1 |
| 20260506162640 | 38 | 190 | 5.2 | 14.8 | 0.28 | 3.62 | 0.76 | 95 | 1008.5 |
| 20260506162124 | 38 | 355 | 5.2 | 26.1 | 0.24 | 3.58 | 0.75 | 95 | 1008.9 |
| 20260506161629 | 38 | 139 | 11.3 | 26.1 | 0.20 | 3.54 | 0.74 | 96 | 1008.8 |
| 20260506161134 | 38 | 86 | 7.8 | 20.9 | 0.20 | 3.50 | 0.73 | 97 | 1008.9 |
| 20260506160638 | 38 | 117 | 10.4 | 23.5 | 0.20 | 3.54 | 0.73 | 97 | 1008.8 |
| 20260506160124 | 39 | 360 | 12.2 | 22.6 | 0.16 | 3.50 | 0.72 | 97 | 1008.6 |
| 20260506155628 | 39 | 153 | 11.3 | 24.3 | 0.16 | 3.50 | 0.72 | 97 | 1008.6 |
| 20260506155132 | 39 | 219 | 12.2 | 28.7 | 0.16 | 3.50 | 0.72 | 97 | 1008.4 |
| 20260506154636 | 38 | 136 | 16.5 | 28.7 | 0.16 | 3.50 | 0.72 | 97 | 1008.4 |
| 20260506154141 | 38 | 194 | 10.4 | 23.5 | 0.12 | 3.46 | 0.71 | 97 | 1008.6 |
| 20260506153630 | 38 | 294 | 7.8 | 20.0 | 0.12 | 3.46 | 0.71 | 97 | 1008.2 |
| 20260506153134 | 37 | 123 | 12.2 | 20.0 | 0.08 | 3.43 | 0.70 | 97 | 1008.8 |
| 20260506152637 | 37 | 88 | 0.9 | 8.7 | 0.04 | 3.39 | 0.69 | 97 | 1009.0 |
| 20260506152142 | 37 | 121 | 1.7 | 23.5 | 0.04 | 3.39 | 0.69 | 97 | 1009.0 |
| 20260506151626 | 38 | 71 | 9.6 | 24.3 | 0.00 | 3.35 | 0.68 | 97 | 1008.9 |
| 20260506151131 | 39 | 107 | 10.4 | 20.0 | 0.00 | 3.35 | 0.68 | 97 | 1008.6 |
| 20260506150635 | 39 | 304 | 6.1 | 13.9 | 0.00 | 3.50 | 0.68 | 97 | 1008.8 |
| 20260506150139 | 39 | 5 | 8.7 | 13.9 | 0.00 | 3.50 | 0.68 | 97 | 1008.8 |
| 20260506145623 | 39 | 266 | 6.1 | 15.6 | 0.00 | 3.50 | 0.68 | 97 | 1009.1 |
| 20260506145127 | 39 | 98 | 7.0 | 15.6 | 0.00 | 3.50 | 0.68 | 97 | 1009.2 |
| 20260506144631 | 39 | 120 | 9.6 | 17.4 | 0.00 | 3.50 | 0.68 | 97 | 1009.3 |
| 20260506144139 | 39 | 121 | 12.2 | 20.9 | 0.00 | 3.50 | 0.68 | 97 | 1009.2 |
| 20260506143641 | 40 | 132 | 13.0 | 20.9 | 0.00 | 3.50 | 0.68 | 97 | 1009.2 |
| 20260506143126 | 39 | 90 | 9.6 | 20.0 | 0.00 | 3.50 | 0.68 | 97 | 1009.3 |
| 20260506142628 | 39 | 127 | 13.0 | 20.9 | 0.00 | 3.50 | 0.68 | 97 | 1009.1 |
| 20260506142132 | 40 | 131 | 14.8 | 20.9 | 0.00 | 3.50 | 0.68 | 97 | 1009.6 |
| 20260506141634 | 39 | 134 | 5.2 | 11.3 | 0.00 | 3.50 | 0.68 | 97 | 1009.7 |
| 20260506141137 | 40 | 132 | 7.8 | 13.0 | 0.00 | 3.50 | 0.68 | 97 | 1009.8 |
| 20260506140642 | 40 | 128 | 8.7 | 14.8 | 0.04 | 3.54 | 0.68 | 97 | 1009.7 |
| 20260506140127 | 40 | 119 | 7.8 | 13.0 | 0.08 | 3.54 | 0.68 | 97 | 1009.8 |
| 20260506135632 | 39 | 109 | 3.5 | 13.0 | 0.12 | 3.54 | 0.68 | 97 | 1009.9 |
| 20260506135135 | 39 | 217 | 5.2 | 15.6 | 0.12 | 3.54 | 0.68 | 97 | 1009.9 |
| 20260506134625 | 39 | 323 | 10.4 | 16.5 | 0.12 | 3.54 | 0.68 | 97 | 1009.9 |
| 20260506134127 | 39 | 48 | 8.7 | 20.0 | 0.12 | 3.54 | 0.68 | 97 | 1009.9 |
| 20260506133632 | 39 | 130 | 13.9 | 20.9 | 0.12 | 3.54 | 0.68 | 97 | 1010.0 |
| 20260506133136 | 39 | 119 | 13.0 | 20.9 | 0.12 | 3.54 | 0.68 | 97 | 1010.1 |
| 20260506132641 | 39 | 98 | 13.0 | 20.9 | 0.12 | 3.54 | 0.68 | 97 | 1009.8 |
| 20260506132126 | 39 | 121 | 13.0 | 18.2 | 0.12 | 3.54 | 0.68 | 97 | 1010.0 |
| 20260506131631 | 39 | 73 | 7.8 | 17.4 | 0.12 | 3.54 | 0.68 | 97 | 1010.0 |
| 20260506131135 | 38 | 71 | 12.2 | 18.2 | 0.12 | 3.54 | 0.68 | 97 | 1010.1 |
| 20260506130639 | 38 | 152 | 7.0 | 14.8 | 0.08 | 3.62 | 0.67 | 97 | 1009.9 |
| 20260506130122 | 38 | 160 | 11.3 | 20.0 | 0.04 | 3.58 | 0.66 | 97 | 1009.9 |
| 20260506125628 | 39 | 132 | 13.9 | 20.0 | 0.00 | 3.54 | 0.65 | 97 | 1009.7 |
| 20260506125131 | 39 | 132 | 13.9 | 22.6 | 0.00 | 3.54 | 0.65 | 97 | 1009.9 |
| 20260506124635 | 39 | 140 | 12.2 | 25.2 | 0.00 | 3.54 | 0.65 | 97 | 1010.1 |
| 20260506124138 | 39 | 128 | 16.5 | 25.2 | 0.00 | 3.54 | 0.65 | 97 | 1009.6 |
| 20260506123641 | 39 | 167 | 8.7 | 24.3 | 0.00 | 3.54 | 0.65 | 97 | 1009.7 |
| 20260506123126 | 39 | 81 | 11.3 | 24.3 | 0.00 | 3.54 | 0.65 | 97 | 1009.5 |
| 20260506122629 | 39 | 129 | 15.6 | 21.7 | 0.00 | 3.54 | 0.65 | 97 | 1009.5 |
| 20260506122133 | 39 | 131 | 8.7 | 16.5 | 0.00 | 3.54 | 0.65 | 97 | 1009.8 |
| 20260506121637 | 39 | 135 | 10.4 | 16.5 | 0.00 | 3.54 | 0.65 | 97 | 1009.6 |
| 20260506121122 | 39 | 138 | 11.3 | 16.5 | 0.00 | 3.54 | 0.65 | 97 | 1009.8 |
| 20260506120627 | 39 | 130 | 9.6 | 20.0 | 0.00 | 3.78 | 0.65 | 97 | 1009.8 |
| 20260506120134 | 40 | 252 | 10.4 | 21.7 | 0.00 | 3.78 | 0.65 | 97 | 1009.8 |
| 20260506115636 | 40 | 145 | 10.4 | 28.7 | 0.00 | 3.78 | 0.65 | 97 | 1009.9 |
| 20260506115140 | 40 | 129 | 16.5 | 28.7 | 0.00 | 3.78 | 0.65 | 97 | 1009.5 |
| 20260506114625 | 40 | 173 | 10.4 | 23.5 | 0.00 | 3.78 | 0.65 | 97 | 1010.0 |
| 20260506114130 | 39 | 136 | 14.8 | 22.6 | 0.00 | 3.78 | 0.65 | 97 | 1009.6 |
| 20260506113634 | 39 | 123 | 13.9 | 22.6 | 0.00 | 3.78 | 0.65 | 97 | 1009.8 |
| 20260506113138 | 39 | 132 | 14.8 | 22.6 | 0.00 | 3.78 | 0.65 | 97 | 1009.7 |
| 20260506112641 | 41 | 113 | 8.7 | 18.2 | 0.00 | 3.78 | 0.65 | 97 | 1009.9 |
| 20260506112124 | 40 | 169 | 7.8 | 18.2 | 0.00 | 3.78 | 0.65 | 97 | 1010.1 |
| 20260506111628 | 39 | 153 | 6.1 | 15.6 | 0.00 | 3.78 | 0.65 | 97 | 1010.1 |
| 20260506111132 | 39 | 150 | 8.7 | 25.2 | 0.00 | 3.78 | 0.65 | 97 | 1010.1 |
| 20260506110641 | 38 | 119 | 14.8 | 25.2 | 0.00 | 4.06 | 0.65 | 97 | 1009.9 |
| 20260506110124 | 38 | 119 | 14.8 | 22.6 | 0.00 | 4.06 | 0.65 | 97 | 1009.8 |
| 20260506105628 | 38 | 136 | 9.6 | 21.7 | 0.00 | 4.06 | 0.65 | 97 | 1010.3 |
| 20260506105130 | 38 | 130 | 10.4 | 25.2 | 0.04 | 4.06 | 0.65 | 97 | 1010.0 |
| 20260506104634 | 37 | 136 | 14.8 | 25.2 | 0.04 | 4.06 | 0.65 | 97 | 1010.1 |
| 20260506104138 | 37 | 130 | 14.8 | 25.2 | 0.08 | 4.06 | 0.65 | 97 | 1010.0 |
| 20260506103623 | 37 | 138 | 15.6 | 22.6 | 0.12 | 4.06 | 0.65 | 97 | 1010.0 |
| 20260506103128 | 37 | 99 | 16.5 | 20.9 | 0.24 | 4.06 | 0.65 | 97 | 1010.0 |
| 20260506102633 | 37 | 195 | 13.0 | 26.9 | 0.24 | 4.06 | 0.65 | 97 | 1010.1 |
| 20260506102135 | 37 | 132 | 20.0 | 27.8 | 0.31 | 4.06 | 0.65 | 97 | 1009.8 |
| 20260506101624 | 37 | 69 | 13.9 | 27.8 | 0.43 | 4.06 | 0.65 | 97 | 1009.7 |
| 20260506101128 | 37 | 160 | 18.2 | 26.1 | 0.55 | 4.06 | 0.65 | 97 | 1010.1 |
| 20260506100631 | 37 | 127 | 20.0 | 36.5 | 0.63 | 4.37 | 0.65 | 97 | 1009.9 |
| 20260506100134 | 36 | 355 | 16.5 | 39.1 | 0.71 | 4.37 | 0.65 | 97 | 1009.6 |
| 20260506095638 | 37 | 144 | 17.4 | 31.3 | 0.91 | 4.33 | 0.64 | 97 | 1009.2 |
| 20260506095123 | 36 | 134 | 20.0 | 32.2 | 1.02 | 4.33 | 0.64 | 97 | 1009.4 |
| 20260506094628 | 36 | 127 | 19.1 | 35.6 | 1.10 | 4.33 | 0.64 | 97 | 1009.9 |
| 20260506094133 | 37 | 164 | 21.7 | 35.6 | 1.06 | 4.29 | 0.63 | 97 | 1009.5 |
| 20260506093637 | 36 | 144 | 20.9 | 29.5 | 0.98 | 4.21 | 0.61 | 97 | 1009.4 |
| 20260506093142 | 36 | 319 | 15.6 | 32.2 | 0.91 | 4.13 | 0.59 | 97 | 1009.1 |
| 20260506092627 | 36 | 115 | 17.4 | 32.2 | 0.87 | 4.09 | 0.58 | 97 | 1008.8 |
| 20260506092136 | 36 | 307 | 11.3 | 22.6 | 0.83 | 4.06 | 0.57 | 97 | 1008.8 |
| 20260506091640 | 36 | 36 | 13.0 | 21.7 | 0.71 | 3.94 | 0.54 | 97 | 1008.4 |
| 20260506091125 | 36 | 14 | 10.4 | 23.5 | 0.59 | 3.82 | 0.51 | 96 | 1009.0 |
| 20260506090630 | 36 | 86 | 11.3 | 23.5 | 0.47 | 4.29 | 0.48 | 96 | 1008.8 |
| 20260506090132 | 35 | 109 | 13.0 | 22.6 | 0.39 | 4.21 | 0.46 | 96 | 1008.8 |
| 20260506085636 | 35 | 100 | 9.6 | 17.4 | 0.20 | 4.02 | 0.41 | 96 | 1009.0 |
| 20260506085141 | 36 | 303 | 9.6 | 20.9 | 0.08 | 3.90 | 0.38 | 96 | 1009.0 |
| 20260506084625 | 37 | 191 | 9.6 | 25.2 | 0.00 | 3.82 | 0.36 | 96 | 1009.0 |
| 20260506084130 | 37 | 117 | 15.6 | 25.2 | 0.00 | 3.82 | 0.36 | 96 | 1008.5 |
| 20260506083634 | 37 | 5 | 10.4 | 22.6 | 0.00 | 3.82 | 0.36 | 96 | 1008.8 |
| 20260506083123 | 37 | 280 | 11.3 | 24.3 | 0.00 | 3.82 | 0.36 | 95 | 1008.8 |
| 20260506082626 | 38 | 81 | 15.6 | 25.2 | 0.00 | 3.82 | 0.36 | 96 | 1008.8 |
| 20260506082131 | 38 | 82 | 15.6 | 25.2 | 0.00 | 3.82 | 0.36 | 96 | 1008.6 |
| 20260506081636 | 38 | 40 | 15.6 | 22.6 | 0.00 | 3.82 | 0.36 | 96 | 1008.6 |
| 20260506081141 | 38 | 128 | 11.3 | 25.2 | 0.00 | 3.82 | 0.36 | 96 | 1008.9 |
| 20260506080626 | 38 | 331 | 14.8 | 25.2 | 0.00 | 4.25 | 0.36 | 96 | 1008.5 |
| 20260506080131 | 38 | 348 | 12.2 | 25.2 | 0.00 | 4.25 | 0.36 | 96 | 1008.5 |
| 20260506073136 | 38 | 234 | 8.7 | 18.2 | 0.04 | 4.25 | 0.36 | 97 | 1009.0 |
| 20260506072640 | 38 | 186 | 8.7 | 18.2 | 0.04 | 4.25 | 0.36 | 97 | 1009.0 |
| 20260506072125 | 37 | 103 | 9.6 | 22.6 | 0.04 | 4.25 | 0.36 | 96 | 1008.9 |
| 20260506071631 | 37 | 63 | 11.3 | 22.6 | 0.04 | 4.25 | 0.36 | 96 | 1009.0 |
| 20260506071135 | 37 | 234 | 10.4 | 22.6 | 0.04 | 4.25 | 0.36 | 96 | 1009.0 |
| 20260506070640 | 37 | 35 | 9.6 | 22.6 | 0.04 | 4.49 | 0.36 | 97 | 1008.8 |
| 20260506070125 | 37 | 18 | 12.2 | 22.6 | 0.08 | 4.49 | 0.36 | 97 | 1009.0 |
| 20260506062136 | 37 | 195 | 8.7 | 17.4 | 0.28 | 4.45 | 0.35 | 97 | 1009.3 |
| 20260506061640 | 37 | 121 | 12.2 | 17.4 | 0.31 | 4.45 | 0.35 | 97 | 1009.5 |
| 20260506061123 | 37 | 5 | 9.6 | 25.2 | 0.31 | 4.45 | 0.35 | 97 | 1009.6 |
| 20260506060627 | 36 | 132 | 10.4 | 25.2 | 0.39 | 4.53 | 0.35 | 97 | 1009.5 |
| 20260506060131 | 35 | 26 | 10.4 | 16.5 | 0.35 | 4.49 | 0.34 | 97 | 1009.5 |
| 20260506051133 | 35 | 63 | 7.0 | 14.8 | 0.12 | 4.17 | 0.26 | 97 | 1009.9 |
| 20260506050636 | 36 | 260 | 5.2 | 13.0 | 0.08 | 4.13 | 0.25 | 97 | 1009.8 |
| 20260506050140 | 36 | 21 | 6.1 | 16.5 | 0.12 | 4.13 | 0.25 | 97 | 1009.8 |
| 20260506045130 | 35 | 125 | 9.6 | 15.6 | 0.08 | 4.09 | 0.24 | 97 | 1010.3 |
| 20260506044634 | 35 | 164 | 9.6 | 15.6 | 0.04 | 4.06 | 0.23 | 97 | 1010.3 |
| 20260506044139 | 36 | 355 | 5.2 | 13.9 | 0.04 | 4.06 | 0.23 | 97 | 1010.3 |
| 20260506043623 | 36 | 144 | 10.4 | 13.9 | 0.04 | 4.06 | 0.23 | 97 | 1010.4 |
| 20260506043128 | 35 | 113 | 6.1 | 14.8 | 0.04 | 4.06 | 0.23 | 97 | 1010.3 |
| 20260506042632 | 36 | 126 | 9.6 | 14.8 | 0.04 | 4.06 | 0.23 | 97 | 1010.3 |
| 20260506042137 | 36 | 142 | 4.3 | 17.4 | 0.04 | 4.06 | 0.23 | 97 | 1010.2 |
| 20260506041642 | 36 | 138 | 6.1 | 17.4 | 0.04 | 4.06 | 0.23 | 97 | 1010.2 |
| 20260506041127 | 36 | 151 | 8.7 | 17.4 | 0.04 | 4.06 | 0.23 | 97 | 1010.1 |
| 20260506040632 | 36 | 123 | 12.2 | 16.5 | 0.04 | 4.06 | 0.23 | 97 | 1010.1 |
| 20260506040141 | 37 | 279 | 6.1 | 13.9 | 0.00 | 4.02 | 0.22 | 97 | 1010.0 |
| 20260506035626 | 37 | 30 | 8.7 | 13.9 | 0.00 | 4.02 | 0.22 | 97 | 1010.3 |
| 20260506035130 | 37 | 132 | 8.7 | 13.0 | 0.00 | 4.02 | 0.22 | 97 | 1010.3 |
| 20260506034635 | 37 | 134 | 8.7 | 13.0 | 0.04 | 4.02 | 0.22 | 97 | 1010.3 |
| 20260506034138 | 37 | 193 | 7.8 | 13.0 | 0.04 | 4.02 | 0.22 | 97 | 1010.2 |
| 20260506033624 | 37 | 128 | 5.2 | 13.0 | 0.04 | 4.02 | 0.22 | 97 | 1010.2 |
| 20260506033129 | 37 | 51 | 5.2 | 13.0 | 0.04 | 4.02 | 0.22 | 97 | 1010.2 |
| 20260506032634 | 37 | 98 | 8.7 | 14.8 | 0.04 | 4.02 | 0.22 | 97 | 1010.3 |
| 20260506032140 | 37 | 124 | 11.3 | 14.8 | 0.04 | 4.02 | 0.22 | 97 | 1010.2 |
| 20260506031625 | 37 | 145 | 9.6 | 14.8 | 0.04 | 4.02 | 0.22 | 97 | 1010.4 |
| 20260506031133 | 37 | 128 | 10.4 | 14.8 | 0.04 | 4.02 | 0.22 | 97 | 1010.5 |
| 20260506030638 | 37 | 124 | 9.6 | 15.6 | 0.04 | 4.02 | 0.22 | 97 | 1010.5 |
| 20260506030123 | 37 | 135 | 9.6 | 15.6 | 0.04 | 4.02 | 0.22 | 97 | 1010.5 |
| 20260506025630 | 38 | 138 | 7.0 | 12.2 | 0.04 | 4.02 | 0.22 | 97 | 1010.7 |
| 20260506025134 | 38 | 150 | 7.8 | 11.3 | 0.04 | 4.02 | 0.22 | 97 | 1010.8 |
| 20260506024638 | 38 | 118 | 7.0 | 12.2 | 0.00 | 3.98 | 0.21 | 97 | 1011.0 |
| 20260506024123 | 38 | 134 | 8.7 | 12.2 | 0.00 | 3.98 | 0.21 | 97 | 1011.1 |
| 20260506023627 | 38 | 277 | 4.3 | 8.7 | 0.00 | 3.98 | 0.21 | 97 | 1011.0 |
| 20260506023133 | 38 | 144 | 4.3 | 10.4 | 0.00 | 3.98 | 0.21 | 97 | 1011.1 |
| 20260506022638 | 38 | 80 | 5.2 | 13.0 | 0.00 | 3.98 | 0.21 | 97 | 1011.2 |
| 20260506022127 | 38 | 148 | 6.1 | 13.0 | 0.04 | 3.98 | 0.21 | 97 | 1011.2 |
| 20260506021632 | 38 | 77 | 6.1 | 12.2 | 0.04 | 3.98 | 0.21 | 97 | 1011.1 |
| 20260506021137 | 38 | 78 | 7.8 | 12.2 | 0.04 | 3.98 | 0.21 | 97 | 1011.3 |
| 20260506020641 | 38 | 145 | 5.2 | 11.3 | 0.04 | 3.98 | 0.21 | 97 | 1011.2 |
| 20260506020126 | 38 | 360 | 5.2 | 11.3 | 0.08 | 3.98 | 0.21 | 97 | 1011.3 |
| 20260506015631 | 38 | 138 | 6.1 | 13.0 | 0.08 | 3.98 | 0.21 | 97 | 1011.3 |
| 20260506015136 | 38 | 148 | 8.7 | 13.9 | 0.08 | 3.98 | 0.21 | 97 | 1011.3 |
| 20260506014641 | 38 | 115 | 8.7 | 13.0 | 0.12 | 3.98 | 0.21 | 97 | 1011.3 |
| 20260506014125 | 38 | 132 | 7.8 | 13.0 | 0.12 | 3.98 | 0.21 | 97 | 1011.3 |
| 20260506013631 | 38 | 137 | 9.6 | 13.0 | 0.16 | 3.98 | 0.21 | 97 | 1011.1 |
| 20260506013136 | 38 | 136 | 7.8 | 13.0 | 0.16 | 3.98 | 0.21 | 97 | 1011.1 |
| 20260506012624 | 38 | 121 | 7.8 | 13.0 | 0.16 | 3.98 | 0.21 | 97 | 1011.2 |
| 20260506012129 | 38 | 128 | 9.6 | 13.9 | 0.20 | 3.94 | 0.20 | 97 | 1011.5 |
| 20260506011633 | 38 | 138 | 8.7 | 13.9 | 0.28 | 3.94 | 0.20 | 97 | 1011.2 |
| 20260506011138 | 38 | 161 | 8.7 | 12.2 | 0.28 | 3.94 | 0.20 | 97 | 1011.2 |
| 20260506010642 | 38 | 138 | 8.7 | 12.2 | 0.28 | 3.94 | 0.20 | 97 | 1011.5 |
| 20260506010127 | 38 | 94 | 3.5 | 11.3 | 0.24 | 3.90 | 0.19 | 97 | 1011.5 |
| 20260506005631 | 38 | 121 | 7.0 | 13.0 | 0.28 | 3.90 | 0.19 | 97 | 1011.6 |
| 20260506005135 | 38 | 133 | 6.1 | 13.9 | 0.24 | 3.86 | 0.18 | 97 | 1011.6 |
| 20260506004639 | 38 | 129 | 10.4 | 15.6 | 0.31 | 3.86 | 0.18 | 97 | 1011.6 |
| 20260506004142 | 38 | 134 | 7.0 | 17.4 | 0.31 | 3.86 | 0.18 | 97 | 1011.7 |
| 20260506003631 | 38 | 142 | 11.3 | 17.4 | 0.31 | 3.82 | 0.17 | 97 | 1011.7 |
| 20260506003135 | 38 | 303 | 10.4 | 17.4 | 0.31 | 3.82 | 0.17 | 97 | 1011.6 |
| 20260506002639 | 38 | 117 | 9.6 | 14.8 | 0.31 | 3.82 | 0.17 | 97 | 1011.7 |
| 20260506002125 | 38 | 128 | 9.6 | 14.8 | 0.20 | 3.70 | 0.14 | 97 | 1011.9 |
| 20260506001630 | 38 | 121 | 9.6 | 15.6 | 0.16 | 3.66 | 0.13 | 97 | 1012.0 |
| 20260506001135 | 38 | 155 | 10.4 | 16.5 | 0.16 | 3.66 | 0.13 | 97 | 1012.1 |
| 20260506000640 | 39 | 124 | 12.2 | 18.2 | 0.20 | 3.66 | 0.13 | 97 | 1012.0 |
| 20260506000126 | 38 | 126 | 8.7 | 17.4 | 0.24 | 3.66 | 0.13 | 97 | 1012.0 |